• In Lithuania
  • List of Countries
  • For 7 days
  • Water Temperature
  • Satellite Maps
  • Weather Map
  • Weather Widgets
  • user-avatar
    Login

    Hourly Weather Caracas

    Today, 22 September, Saturday

    Time Temperature Precipitation Wind Pressure Humidity
    00:00 +18°C° 0.1 mm 3 mps 648 mmHg 96%
    01:00 +18°C° 0.1 mm 3 mps 648 mmHg 96%
    02:00 +18°C° 0.1 mm 2 mps 648 mmHg 96%
    03:00 +18°C° 0 mm 2 mps 648 mmHg 96%
    04:00 +18°C° 0 mm 2 mps 648 mmHg 95%
    05:00 +18°C° 0 mm 2 mps 648 mmHg 95%
    06:00 +18°C° 0 mm 2 mps 648 mmHg 93%
    07:00 +19°C° 0 mm 2 mps 648 mmHg 91%
    08:00 +19°C° 0 mm 2 mps 649 mmHg 89%
    09:00 +21°C° 0.4 mm 2 mps 649 mmHg 84%
    10:00 +23°C° 0.4 mm 2 mps 650 mmHg 79%
    11:00 +25°C° 0.4 mm 2 mps 650 mmHg 74%
    12:00 +25°C° 2.5 mm 2 mps 649 mmHg 78%
    13:00 +24°C° 2.5 mm 2 mps 649 mmHg 83%
    14:00 +22°C° 2.5 mm 3 mps 648 mmHg 88%
    15:00 +22°C° 3.3 mm 3 mps 648 mmHg 89%
    16:00 +21°C° 3.3 mm 3 mps 647 mmHg 90%
    17:00 +21°C° 3.3 mm 3 mps 647 mmHg 91%
    18:00 +20°C° 3.6 mm 3 mps 647 mmHg 92%
    19:00 +19°C° 3.6 mm 3 mps 647 mmHg 93%
    20:00 +18°C° 3.6 mm 3 mps 647 mmHg 94%
    21:00 +18°C° 1.7 mm 3 mps 648 mmHg 94%
    22:00 +18°C° 1.7 mm 3 mps 648 mmHg 94%
    23:00 +18°C° 1.7 mm 2 mps 648 mmHg 94%

    Tomorrow, 23 September, Sunday

    Time Temperature Precipitation Wind Pressure Humidity
    00:00 +18°C° 0.5 mm 2 mps 648 mmHg 94%
    01:00 +18°C° 0.5 mm 2 mps 647 mmHg 94%
    02:00 +17°C° 0.5 mm 2 mps 647 mmHg 93%
    03:00 +17°C° 1.4 mm 2 mps 647 mmHg 93%
    04:00 +17°C° 1.4 mm 2 mps 647 mmHg 93%
    05:00 +17°C° 1.4 mm 2 mps 647 mmHg 93%
    06:00 +17°C° 0.8 mm 2 mps 647 mmHg 92%
    07:00 +18°C° 0.8 mm 2 mps 648 mmHg 90%
    08:00 +20°C° 0.8 mm 1 mps 648 mmHg 89%
    09:00 +22°C° 0.6 mm 1 mps 649 mmHg 85%
    10:00 +23°C° 0.6 mm 1 mps 649 mmHg 81%
    11:00 +25°C° 0.6 mm 1 mps 650 mmHg 78%
    12:00 +24°C° 1.8 mm 2 mps 649 mmHg 81%
    13:00 +24°C° 1.8 mm 2 mps 648 mmHg 84%
    14:00 +23°C° 1.8 mm 2 mps 648 mmHg 87%
    15:00 +23°C° 1.8 mm 2 mps 648 mmHg 88%
    16:00 +21°C° 1.8 mm 2 mps 647 mmHg 90%
    17:00 +20°C° 1.8 mm 2 mps 647 mmHg 91%
    18:00 +20°C° 0.6 mm 2 mps 647 mmHg 92%
    19:00 +19°C° 0.6 mm 2 mps 648 mmHg 92%
    20:00 +18°C° 0.6 mm 2 mps 648 mmHg 93%
    21:00 +18°C° 0.2 mm 2 mps 648 mmHg 92%
    22:00 +18°C° 0.2 mm 2 mps 648 mmHg 92%
    23:00 +18°C° 0.2 mm 2 mps 649 mmHg 91%

    Day after tomorrow, 24 September, Monday

    Time Temperature Precipitation Wind Pressure Humidity
    00:00 +18°C° 0.5 mm 2 mps 648 mmHg 91%
    01:00 +17°C° 0.5 mm 2 mps 648 mmHg 91%
    02:00 +17°C° 0.5 mm 2 mps 648 mmHg 91%
    03:00 +17°C° 0.4 mm 2 mps 648 mmHg 91%
    04:00 +17°C° 0.4 mm 2 mps 648 mmHg 91%
    05:00 +17°C° 0.4 mm 2 mps 647 mmHg 91%
    06:00 +17°C° 0.3 mm 2 mps 648 mmHg 90%
    07:00 +18°C° 0.3 mm 2 mps 649 mmHg 90%
    08:00 +18°C° 0.3 mm 2 mps 649 mmHg 89%
    09:00 +20°C° 0.1 mm 2 mps 650 mmHg 82%
    10:00 +21°C° 0.1 mm 2 mps 651 mmHg 75%
    11:00 +24°C° 0.1 mm 2 mps 651 mmHg 68%
    12:00 +24°C° 0.9 mm 2 mps 651 mmHg 71%
    13:00 +24°C° 0.9 mm 2 mps 650 mmHg 75%
    14:00 +24°C° 0.9 mm 2 mps 649 mmHg 78%
    15:00 +23°C° 1.6 mm 2 mps 649 mmHg 82%
    16:00 +21°C° 1.6 mm 2 mps 648 mmHg 86%
    17:00 +20°C° 1.6 mm 2 mps 648 mmHg 90%
    18:00 +19°C° 0.7 mm 2 mps 648 mmHg 91%
    19:00 +19°C° 0.7 mm 2 mps 648 mmHg 91%
    20:00 +18°C° 0.7 mm 2 mps 649 mmHg 92%
    21:00 +18°C° 0.9 mm 2 mps 649 mmHg 93%
    22:00 +18°C° 0.9 mm 2 mps 649 mmHg 93%
    23:00 +18°C° 0.9 mm 2 mps 649 mmHg 93%

    25 September, Tuesday

    Time Temperature Precipitation Wind Pressure Humidity
    00:00 +18°C° 1 mm 2 mps 649 mmHg 93%
    01:00 +17°C° 1 mm 2 mps 649 mmHg 93%
    02:00 +17°C° 1 mm 2 mps 648 mmHg 93%
    03:00 +17°C° 1.2 mm 2 mps 648 mmHg 94%
    04:00 +17°C° 1.2 mm 2 mps 648 mmHg 94%
    05:00 +17°C° 1.2 mm 2 mps 648 mmHg 95%
    06:00 +18°C° 0.9 mm 2 mps 649 mmHg 93%
    07:00 +18°C° 0.9 mm 2 mps 649 mmHg 92%
    08:00 +19°C° 0.9 mm 2 mps 650 mmHg 90%
    09:00 +20°C° 0.3 mm 2 mps 650 mmHg 83%
    10:00 +22°C° 0.3 mm 3 mps 651 mmHg 75%
    11:00 +25°C° 0.3 mm 3 mps 651 mmHg 68%
    12:00 +25°C° 1.3 mm 3 mps 651 mmHg 71%
    13:00 +25°C° 1.3 mm 3 mps 650 mmHg 75%
    14:00 +25°C° 1.3 mm 3 mps 649 mmHg 78%
    15:00 +24°C° 1.9 mm 3 mps 649 mmHg 81%
    16:00 +22°C° 1.9 mm 3 mps 648 mmHg 84%
    17:00 +21°C° 1.9 mm 3 mps 648 mmHg 86%
    18:00 +20°C° 0.7 mm 3 mps 648 mmHg 89%
    19:00 +20°C° 0.7 mm 3 mps 648 mmHg 92%
    20:00 +19°C° 0.7 mm 3 mps 649 mmHg 94%
    21:00 +19°C° 0.2 mm 3 mps 649 mmHg 95%
    22:00 +19°C° 0.2 mm 3 mps 649 mmHg 95%
    23:00 +19°C° 0.2 mm 3 mps 649 mmHg 96%

    26 September, Wednesday

    Time Temperature Precipitation Wind Pressure Humidity
    00:00 +18°C° 0.6 mm 3 mps 649 mmHg 96%
    01:00 +18°C° 0.6 mm 3 mps 648 mmHg 96%
    02:00 +18°C° 0.6 mm 3 mps 648 mmHg 96%
    03:00 +18°C° 0.3 mm 3 mps 648 mmHg 96%
    04:00 +18°C° 0.3 mm 2 mps 647 mmHg 96%
    05:00 +18°C° 0.3 mm 2 mps 647 mmHg 96%
    06:00 +18°C° 0 mm 2 mps 648 mmHg 94%
    07:00 +19°C° 0 mm 2 mps 648 mmHg 92%
    08:00 +19°C° 0 mm 2 mps 649 mmHg 91%
    09:00 +21°C° 0 mm 2 mps 649 mmHg 82%
    10:00 +23°C° 0 mm 2 mps 650 mmHg 74%
    11:00 +25°C° 0 mm 2 mps 650 mmHg 66%
    12:00 +25°C° 1.3 mm 2 mps 650 mmHg 70%
    13:00 +25°C° 1.3 mm 2 mps 649 mmHg 74%
    14:00 +24°C° 1.3 mm 2 mps 648 mmHg 78%
    15:00 +24°C° 2.6 mm 2 mps 648 mmHg 80%
    16:00 +23°C° 2.6 mm 2 mps 647 mmHg 82%
    17:00 +21°C° 2.6 mm 3 mps 647 mmHg 84%
    18:00 +21°C° 0.6 mm 2 mps 647 mmHg 88%
    19:00 +20°C° 0.6 mm 2 mps 647 mmHg 92%
    20:00 +19°C° 0.6 mm 2 mps 648 mmHg 96%
    21:00 +19°C° 0.5 mm 2 mps 648 mmHg 96%
    22:00 +19°C° 0.5 mm 2 mps 648 mmHg 96%
    23:00 +19°C° 0.5 mm 3 mps 648 mmHg 96%

    27 September, Thursday

    Time Temperature Precipitation Wind Pressure Humidity
    00:00 +18°C° 0.7 mm 2 mps 648 mmHg 97%
    01:00 +18°C° 0.7 mm 2 mps 647 mmHg 97%
    02:00 +18°C° 0.7 mm 2 mps 647 mmHg 97%
    03:00 +18°C° 0.7 mm 2 mps 647 mmHg 97%
    04:00 +18°C° 0.7 mm 2 mps 647 mmHg 97%
    05:00 +18°C° 0.7 mm 2 mps 647 mmHg 97%
    06:00 +18°C° 0.9 mm 2 mps 647 mmHg 95%
    07:00 +19°C° 0.9 mm 2 mps 648 mmHg 94%
    08:00 +19°C° 0.9 mm 2 mps 649 mmHg 93%
    09:00 +20°C° 0.7 mm 3 mps 649 mmHg 86%
    10:00 +22°C° 0.7 mm 3 mps 649 mmHg 80%
    11:00 +24°C° 0.7 mm 3 mps 650 mmHg 73%
    12:00 +24°C° 1.5 mm 3 mps 649 mmHg 76%
    13:00 +24°C° 1.5 mm 3 mps 649 mmHg 80%
    14:00 +24°C° 1.5 mm 3 mps 648 mmHg 84%
    15:00 +22°C° 1.9 mm 3 mps 648 mmHg 85%
    16:00 +22°C° 1.9 mm 3 mps 647 mmHg 87%
    17:00 +21°C° 1.9 mm 3 mps 647 mmHg 88%
    18:00 +20°C° 0.3 mm 3 mps 647 mmHg 91%
    19:00 +20°C° 0.3 mm 3 mps 648 mmHg 93%
    20:00 +19°C° 0.3 mm 3 mps 648 mmHg 95%
    21:00 +19°C° 0.2 mm 3 mps 648 mmHg 95%
    22:00 +19°C° 0.2 mm 3 mps 648 mmHg 96%
    23:00 +19°C° 0.2 mm 3 mps 649 mmHg 96%
    Show more